| time (UTC) | temp C | wind direction | speed KPH | gust KPH | rain 1hr cm | rain 24hr cm | rain mn cm | humidity % | barometer mb |
| 20260504043058 | 13 | 177 | 4.8 | 9.7 | 0.00 | 0.00 | 0.00 | 52 | 1011.3 |
| 20260504040059 | 12 | 177 | 3.2 | 9.7 | 0.00 | 0.00 | 0.00 | 52 | 1011.8 |
| 20260504033059 | 10 | 175 | 4.8 | 9.7 | 0.00 | 0.00 | 0.00 | 60 | 1011.9 |
| 20260504030059 | 11 | 183 | 1.6 | 4.8 | 0.00 | 0.00 | 0.00 | 55 | 1012.0 |
| 20260504023058 | 12 | 168 | 3.2 | 9.7 | 0.00 | 0.00 | 0.00 | 50 | 1011.9 |
| 20260504020059 | 12 | 166 | 3.2 | 12.9 | 0.00 | 0.00 | 0.00 | 49 | 1011.9 |
| 20260504013058 | 13 | 196 | 4.8 | 9.7 | 0.00 | 0.00 | 0.00 | 46 | 1011.8 |
| 20260504010058 | 12 | 194 | 3.2 | 9.7 | 0.00 | 0.00 | 0.00 | 52 | 1011.7 |
| 20260504003059 | 12 | 177 | 3.2 | 9.7 | 0.00 | 0.00 | 0.00 | 51 | 1011.6 |
| 20260504000100 | 13 | 211 | 3.2 | 14.5 | 0.00 | 0.00 | 0.00 | 46 | 1011.7 |
| 20260503233059 | 12 | 191 | 4.8 | 8.0 | 0.00 | 0.00 | 0.00 | 53 | 1011.9 |
| 20260503230059 | 11 | 169 | 3.2 | 4.8 | 0.00 | 0.00 | 0.00 | 55 | 1012.0 |
| 20260503223059 | 12 | 177 | 3.2 | 4.8 | 0.00 | 0.00 | 0.00 | 51 | 1012.0 |
| 20260503220058 | 13 | 166 | 1.6 | 4.8 | 0.00 | 0.00 | 0.00 | 49 | 1012.2 |
| 20260503213059 | 13 | 173 | 3.2 | 6.4 | 0.00 | 0.00 | 0.00 | 46 | 1012.4 |
| 20260503210058 | 13 | 169 | 3.2 | 4.8 | 0.00 | 0.00 | 0.00 | 44 | 1012.3 |
| 20260503203100 | 14 | 156 | 1.6 | 4.8 | 0.00 | 0.00 | 0.00 | 42 | 1012.6 |
| 20260503200059 | 15 | 166 | 1.6 | 4.8 | 0.00 | 0.00 | 0.00 | 40 | 1012.3 |
| 20260503193059 | 16 | 167 | 1.6 | 4.8 | 0.00 | 0.00 | 0.00 | 37 | 1012.4 |
| 20260503190059 | 17 | 171 | 1.6 | 4.8 | 0.00 | 0.00 | 0.00 | 32 | 1012.7 |
| 20260503183059 | 17 | 162 | 3.2 | 4.8 | 0.00 | 0.00 | 0.00 | 32 | 1012.8 |
| 20260503180059 | 19 | 161 | 1.6 | 6.4 | 0.00 | 0.00 | 0.00 | 28 | 1013.3 |
| 20260503173058 | 22 | 164 | 4.8 | 9.7 | 0.00 | 0.00 | 0.00 | 19 | 1013.5 |